Location: Unspecified
(4.2650°N, 0.0000°E)
Time: 01:12:31
(UTC+00:00)

ISS - Visible Passes

Search period start: 04 April 2026 00:00
Search period end: 14 April 2026 00:00
Orbit: 417 x 425 km, 51.6° (Epoch: 29 March)

Date Brightness Start Highest point End Pass type
(mag) Time Alt. Az. Time Alt. Az. Time Alt. Az.
4 Apr -2.6 19:24:22 10° NW 19:27:33 40° SW 19:28:33 31° SSW visible
5 Apr -3.8 18:36:59 10° NNW 18:40:21 79° NE 18:43:42 10° SE visible
7 Apr -0.9 18:40:06 10° W 18:42:26 18° SW 18:44:46 10° S visible
9 Apr -2.8 05:30:09 10° SSW 05:33:24 49° SE 05:36:39 10° NE visible
10 Apr -1.4 04:43:29 10° S 04:46:06 21° SE 04:48:43 10° ENE visible
12 Apr -3.8 04:47:25 51° WSW 04:47:59 62° NW 04:51:18 10° NNE visible
13 Apr -1.0 04:02:47 19° NE 04:02:47 19° NE 04:03:51 10° NE visible
